Date_and_time,latitude,longitude,wind_speed,RelWindDirFrom,WindDirFrom,air_pressure,air_temperature,relative_humidity,Temp,platform_speed_wrt_ground,air_pressure_at_mean_sea_level,platform_orientation
2019-01-15 00:00,50.630445,-96.9807733333333,11.6,13.6,164,994.52,-10.3,99,0.75,0.0,1023.65,125.3
2019-01-15 00:00,50.630445,-96.9807733333333,12.8,12.9,167,994.13,-10.3,99,0.76,0.0,1023.26,339.9
2019-01-15 00:10,50.63044,-96.980775,14.2,16.6,166,993.88,-10.3,99,0.75,0.0,1023.01,339.9
2019-01-15 00:20,50.6304433333333,-96.980775,9.3,14.3,180,994.31,-10.3,99,0.75,0.0,1023.45,339.9
2019-01-15 00:30,50.6304433333333,-96.9807783333333,7.3,10.0,188,994.48,-10.2,99,0.75,0.0,1023.62,339.9
2019-01-15 00:40,50.63045,-96.9807466666667,8.0,10.3,184,994.25,-10.2,99,0.75,0.0,1023.38,339.9
2019-01-15 00:50,50.6304433333333,-96.980765,7.7,9.5,184,994.04,-10.2,99,0.75,0.0,1023.17,339.9
2019-01-15 01:00,50.63045,-96.9808033333333,8.1,10.1,175,993.84,-10.3,99,0.75,0.0,1022.97,296.7
2019-01-15 01:10,50.6304466666667,-96.98078,9.0,10.6,165,993.41,-10.4,99,0.75,0.0,1022.53,296.7
2019-01-15 01:20,50.6304433333333,-96.9807733333333,9.6,11.9,165,993.16,-10.4,99,0.75,0.0,1022.28,296.7
2019-01-15 01:30,50.6304433333333,-96.98077,10.6,14.2,162,992.88,-10.3,99,0.75,0.0,1021.99,296.7
2019-01-15 01:40,50.630445,-96.98077,10.9,13.4,167,992.80,-10.3,99,0.75,0.0,1021.91,296.7
2019-01-15 01:50,50.630445,-96.98077,12.2,14.9,171,992.50,-10.2,99,0.75,0.0,1021.60,296.7
2019-01-15 02:00,50.63044,-96.9807433333333,12.4,15.2,173,992.28,-10.2,99,0.75,0.0,1021.38,90.0
2019-01-15 02:10,50.6304533333333,-96.980775,11.9,14.8,170,991.99,-10.3,99,0.75,0.0,1021.08,90.0
2019-01-15 02:20,50.63045,-96.9807683333333,11.6,15.0,177,991.86,-10.2,99,0.75,0.0,1020.94,90.0
2019-01-15 02:30,50.6304466666667,-96.9807666666667,12.5,16.1,180,991.43,-10.3,99,0.75,0.0,1020.50,90.0
2019-01-15 02:40,50.630435,-96.9807616666667,15.5,20.3,176,990.93,-10.4,99,0.75,0.0,1019.99,90.0
2019-01-15 02:50,50.6304433333333,-96.9807633333333,16.2,20.1,178,990.63,-10.5,99,0.75,0.0,1019.70,90.0
2019-01-15 03:00,50.6304433333333,-96.980765,14.1,17.3,180,990.53,-10.5,99,0.75,0.0,1019.59,90.0
2019-01-15 03:10,50.630445,-96.980765,12.7,17.0,182,990.50,-10.5,99,0.76,0.0,1019.56,90.0
2019-01-15 03:20,50.630445,-96.9807633333333,12.2,16.8,183,990.23,-10.5,99,0.76,0.0,1019.28,90.0
2019-01-15 03:30,50.6304433333333,-96.980765,15.4,21.2,179,989.72,-10.6,99,0.76,0.0,1018.76,90.0
2019-01-15 03:40,50.630445,-96.980765,15.7,21.7,180,989.46,-10.6,99,0.76,0.0,1018.49,90.0
2019-01-15 03:50,50.630445,-96.9807666666667,16.1,21.1,174,989.02,-10.5,99,0.76,0.0,1018.04,90.0
2019-01-15 04:00,50.630445,-96.9807666666667,15.3,19.3,173,988.75,-10.4,99,0.75,0.0,1017.75,113.6
2019-01-15 04:10,50.630445,-96.9807666666667,15.7,20.0,176,988.45,-10.3,99,0.75,0.0,1017.43,113.6
2019-01-15 04:20,50.630445,-96.9807666666667,13.7,17.4,180,988.32,-10.2,99,0.75,0.0,1017.30,113.6
2019-01-15 04:30,50.6304466666667,-96.9807666666667,14.2,17.6,181,987.99,-10.1,99,0.75,0.0,1016.95,113.6
2019-01-15 04:40,50.63047,-96.9808016666667,14.6,18.2,181,987.63,-10.0,99,0.75,0.0,1016.59,113.6
2019-01-15 04:50,50.6304266666667,-96.9807633333333,16.0,20.2,182,987.37,-9.8,99,0.75,0.0,1016.30,113.6
2019-01-15 05:00,50.630455,-96.9807683333333,15.5,19.6,183,987.25,-9.8,99,0.75,0.0,1016.18,304.8
2019-01-15 05:10,50.630455,-96.98076,15.0,21.5,185,987.15,-9.7,99,0.75,0.0,1016.08,304.8
2019-01-15 05:20,50.63047,-96.98078,16.0,20.4,187,987.10,-9.6,99,0.75,0.0,1016.02,304.8
2019-01-15 05:30,50.6304516666667,-96.9807683333333,15.1,19.8,188,986.96,-9.5,99,0.75,0.0,1015.88,304.8
2019-01-15 05:40,50.6304483333333,-96.9807666666667,16.5,24.0,186,986.66,-9.4,99,0.75,0.0,1015.56,304.8
2019-01-15 05:50,50.63045,-96.98077,17.2,21.0,183,986.39,-9.4,99,0.75,0.0,1015.27,304.8
2019-01-15 06:00,50.6304483333333,-96.9807683333333,16.4,22.8,187,986.23,-9.3,99,0.75,0.0,1015.09,360.0
2019-01-15 06:10,50.6304483333333,-96.9807683333333,17.1,22.4,187,985.89,-9.1,99,0.74,0.0,1014.74,360.0
2019-01-15 06:20,50.6304616666667,-96.9807883333333,16.5,24.5,184,985.54,-9.0,99,0.74,0.0,1014.35,360.0
2019-01-15 06:30,50.630455,-96.9807883333333,17.3,22.2,180,985.03,-8.9,99,0.74,0.0,1013.82,360.0
2019-01-15 06:40,50.6304533333333,-96.9807666666667,17.3,21.4,181,984.73,-8.7,99,0.74,0.0,1013.50,360.0
2019-01-15 06:50,50.630455,-96.9807683333333,17.6,23.8,183,984.45,-8.6,99,0.74,0.0,1013.20,360.0
2019-01-15 07:00,50.6304566666667,-96.980765,20.4,26.5,180,983.78,-8.5,99,0.73,0.0,1012.50,360.0
2019-01-15 07:10,50.6304566666667,-96.9807633333333,20.1,25.9,179,983.29,-8.3,99,0.74,0.0,1011.97,360.0
2019-01-15 07:20,50.630455,-96.9807633333333,19.3,27.7,183,982.98,-8.2,99,0.74,0.0,1011.65,360.0
2019-01-15 07:30,50.6304466666667,-96.9807866666667,18.1,23.7,186,982.84,-8.1,99,0.74,0.0,1011.49,360.0
2019-01-15 07:40,50.6304533333333,-96.9807766666667,16.4,22.8,188,982.71,-8.0,99,0.74,0.0,1011.35,360.0
2019-01-15 07:50,50.6304483333333,-96.9807666666667,16.3,22.1,187,982.36,-7.9,99,0.72,0.0,1010.98,360.0
2019-01-15 08:00,50.63045,-96.9807766666667,15.3,20.9,189,982.10,-7.9,99,0.71,0.0,1010.70,270.0
2019-01-15 08:10,50.6304533333333,-96.9807783333333,14.9,19.5,191,981.98,-7.7,99,0.71,0.0,1010.57,270.0
2019-01-15 08:20,50.6304533333333,-96.9807766666667,15.7,20.9,188,981.66,-7.6,99,0.71,0.0,1010.22,270.0
2019-01-15 08:30,50.6304433333333,-96.980775,19.1,24.7,188,981.02,-7.5,98,0.71,0.0,1009.55,270.0
2019-01-15 08:40,50.6304366666667,-96.9807583333333,17.8,23.6,188,980.75,-7.4,98,0.71,0.0,1009.26,270.0
2019-01-15 08:50,50.6304716666667,-96.9807683333333,18.6,26.7,188,980.38,-7.3,99,0.72,0.0,1008.87,270.0
2019-01-15 09:00,50.63045,-96.9807766666667,17.0,26.6,194,980.55,-7.1,98,0.72,0.0,1009.02,347.4
2019-01-15 09:10,50.630455,-96.9807633333333,17.5,22.4,197,980.53,-7.1,98,0.72,0.0,1009.00,347.4
2019-01-15 09:20,50.6304533333333,-96.9807566666667,16.8,22.6,198,980.34,-7.1,98,0.72,0.0,1008.79,347.4
2019-01-15 09:30,50.6304516666667,-96.98076,17.4,22.6,192,979.75,-7.1,99,0.72,0.0,1008.18,347.4
2019-01-15 09:40,50.63045,-96.9807616666667,16.3,21.9,193,979.52,-7.1,99,0.72,0.0,1007.94,347.4
2019-01-15 09:50,50.6304483333333,-96.9807633333333,16.8,21.8,188,979.10,-7.1,99,0.71,0.0,1007.50,347.4
2019-01-15 10:00,50.6304483333333,-96.980765,15.9,23.5,192,979.04,-7.0,99,0.70,0.0,1007.43,142.0
2019-01-15 10:10,50.6304333333333,-96.9807683333333,15.4,21.2,198,979.18,-7.0,99,0.68,0.0,1007.57,142.0
2019-01-15 10:20,50.6304366666667,-96.9807816666667,14.0,18.4,203,979.46,-7.0,99,0.68,0.0,1007.85,142.0
2019-01-15 10:30,50.6304533333333,-96.9807583333333,13.4,19.0,204,979.45,-7.1,99,0.68,0.0,1007.84,142.0
2019-01-15 10:40,50.6304616666667,-96.9807583333333,11.4,15.7,207,979.59,-7.0,99,0.68,0.0,1007.97,142.0
2019-01-15 10:50,50.6304616666667,-96.98076,10.8,14.2,205,979.50,-6.9,99,0.67,0.0,1007.87,142.0
2019-01-15 11:00,50.63046,-96.9807633333333,10.2,13.3,207,979.46,-6.7,99,0.67,0.0,1007.81,48.3
2019-01-15 11:10,50.6304583333333,-96.9807633333333,9.4,11.9,210,979.46,-6.5,99,0.67,0.0,1007.80,48.3
2019-01-15 11:20,50.6304566666667,-96.980765,9.8,13.1,213,979.43,-6.2,99,0.68,0.0,1007.75,48.3
2019-01-15 11:30,50.6304566666667,-96.9807666666667,9.6,13.1,220,979.54,-5.9,99,0.69,0.0,1007.85,48.3
2019-01-15 11:40,50.630455,-96.9807683333333,9.5,12.6,221,979.58,-5.7,99,0.70,0.0,1007.88,48.3
2019-01-15 11:50,50.6304566666667,-96.9807683333333,9.1,12.3,221,979.64,-5.5,99,0.71,0.0,1007.93,48.3
2019-01-15 12:00,50.6304566666667,-96.9807666666667,8.8,12.3,226,979.71,-5.3,99,0.71,0.0,1007.99,90.0
2019-01-15 12:10,50.6304566666667,-96.9807666666667,8.7,13.1,221,979.75,-5.2,99,0.71,0.0,1008.03,90.0
2019-01-15 12:20,50.630435,-96.9807616666667,7.6,10.3,223,979.79,-5.1,99,0.71,0.0,1008.06,90.0
2019-01-15 12:30,50.6304533333333,-96.9807733333333,6.9,9.1,229,979.89,-4.9,99,0.71,0.0,1008.16,90.0
2019-01-15 12:40,50.6304583333333,-96.980775,7.0,9.4,223,979.92,-4.7,99,0.70,0.0,1008.17,90.0
2019-01-15 12:50,50.6304566666667,-96.980775,6.8,9.6,231,980.00,-4.6,98,0.69,0.0,1008.23,90.0
2019-01-15 13:00,50.630455,-96.980775,5.6,7.7,235,980.09,-4.5,99,0.70,0.0,1008.31,311.7
2019-01-15 13:10,50.6304533333333,-96.9807616666667,5.5,8.6,235,980.16,-4.5,99,0.70,0.0,1008.36,311.7
2019-01-15 13:20,50.6304616666667,-96.9807566666667,5.7,12.3,251,980.22,-4.2,99,0.71,0.0,1008.40,311.7
2019-01-15 13:30,50.6304616666667,-96.9807733333333,12.9,23.6,291,980.05,-2.9,99,0.71,0.0,1008.14,311.7
2019-01-15 13:40,50.6304533333333,-96.9807683333333,18.9,29.7,318,980.17,-3.0,98,0.71,0.0,1008.27,311.7
2019-01-15 13:50,50.6304383333333,-96.98077,20.1,32.9,322,980.98,-5.5,93,0.71,0.0,1009.22,311.7
2019-01-15 14:00,50.63044,-96.98076,22.2,34.0,317,981.42,-8.3,79,0.71,0.0,1009.81,156.5
2019-01-15 14:10,50.6304683333333,-96.9807816666667,20.4,32.6,317,982.17,-9.5,75,0.70,0.0,1010.65,156.5
2019-01-15 14:20,50.63046,-96.9807766666667,17.0,27.9,320,982.99,-10.2,76,0.70,0.0,1011.51,156.5
2019-01-15 14:30,50.6304566666667,-96.9807733333333,15.9,26.7,324,983.63,-10.7,77,0.71,0.0,1012.19,156.5
2019-01-15 14:40,50.6304583333333,-96.980775,14.3,22.4,313,984.20,-11.1,77,0.71,0.0,1012.80,156.5
2019-01-15 14:50,50.6304583333333,-96.9807733333333,20.4,32.6,317,984.21,-12.1,75,0.71,0.0,1012.86,156.5
2019-01-15 15:00,50.6304583333333,-96.980775,18.2,30.7,320,984.78,-13.0,72,0.71,0.0,1013.49,347.4
2019-01-15 15:10,50.6304566666667,-96.980775,13.9,27.3,315,985.29,-13.1,73,0.72,0.0,1014.00,347.4
2019-01-15 15:20,50.6304566666667,-96.9807733333333,16.8,29.2,307,985.23,-13.5,74,0.72,0.0,1013.89,347.4
2019-01-15 15:30,50.6304566666667,-96.9807766666667,18.5,29.9,312,985.50,-14.0,74,0.72,0.0,1014.20,347.4
2019-01-15 15:40,50.6304516666667,-96.980775,18.7,29.1,314,985.80,-14.4,73,0.71,0.0,1014.68,347.4
2019-01-15 15:50,50.6304533333333,-96.98077,20.8,29.8,313,986.03,-14.8,72,0.71,0.0,1015.09,347.4
2019-01-15 16:00,50.630455,-96.98077,18.2,32.2,307,986.70,-15.1,72,0.71,0.0,1015.87,90.0
2019-01-15 16:10,50.6304566666667,-96.9807683333333,23.4,34.1,314,986.67,-15.3,68,0.71,0.0,1015.89,90.0
2019-01-15 16:20,50.6304566666667,-96.9807683333333,19.9,34.0,307,987.40,-15.4,68,0.71,0.0,1016.67,90.0
2019-01-15 16:30,50.6304433333333,-96.9807716666667,18.4,31.6,312,987.94,-15.6,67,0.71,0.0,1017.26,90.0
2019-01-15 16:40,50.63045,-96.9807666666667,15.3,25.3,310,988.65,-15.6,67,0.71,0.0,1018.04,90.0
2019-01-15 16:50,50.6304483333333,-96.9807616666667,17.0,26.5,311,988.88,-15.8,67,0.70,0.0,1018.34,90.0
2019-01-15 17:00,50.6304483333333,-96.9807616666667,17.0,27.5,307,989.27,-16.0,67,0.69,0.0,1018.76,38.0
2019-01-15 17:10,50.6304383333333,-96.9807533333333,15.2,24.3,309,989.52,-16.0,66,0.67,0.0,1019.05,38.0
2019-01-15 17:20,50.63044,-96.9807616666667,16.0,25.8,312,989.88,-16.0,66,0.68,0.0,1019.45,38.0
2019-01-15 17:30,50.6304533333333,-96.9807716666667,16.2,30.2,309,990.16,-16.0,67,0.67,0.0,1019.76,38.0
2019-01-15 17:40,50.6304466666667,-96.980765,17.2,31.8,310,990.06,-16.1,67,0.67,0.0,1019.68,38.0
2019-01-15 17:50,50.6304416666667,-96.9807616666667,17.2,25.4,308,990.30,-16.1,67,0.67,0.0,1019.95,38.0
2019-01-15 18:00,50.6304383333333,-96.98076,19.7,28.7,305,990.25,-16.2,67,0.67,0.0,1019.92,147.5
2019-01-15 18:10,50.6304433333333,-96.9807633333333,17.0,27.5,309,990.85,-16.2,66,0.67,0.0,1020.54,147.5
2019-01-15 18:20,50.6304416666667,-96.980765,15.0,22.9,308,991.31,-16.0,65,0.67,0.0,1021.01,147.5
2019-01-15 18:30,50.630445,-96.980765,16.1,24.8,314,991.39,-16.0,65,0.66,0.0,1021.09,147.5
2019-01-15 18:40,50.6304466666667,-96.9807666666667,16.1,25.1,312,991.65,-16.0,65,0.65,0.0,1021.37,147.5
2019-01-15 18:50,50.6304466666667,-96.980765,15.6,24.3,310,991.77,-16.0,65,0.65,0.0,1021.51,147.5
2019-01-15 19:00,50.6304466666667,-96.9807666666667,16.6,28.2,309,991.94,-16.1,65,0.65,0.0,1021.68,142.0
2019-01-15 19:10,50.6304466666667,-96.980765,15.7,23.7,315,992.10,-16.1,65,0.65,0.0,1021.85,142.0
2019-01-15 19:20,50.6304466666667,-96.980765,15.9,22.1,313,992.09,-16.0,65,0.66,0.0,1021.84,142.0
2019-01-15 19:30,50.6304466666667,-96.9807666666667,15.9,22.9,311,992.26,-16.1,66,0.66,0.0,1022.02,142.0
2019-01-15 19:40,50.6304466666667,-96.9807666666667,14.7,27.7,314,992.54,-16.2,66,0.65,0.0,1022.32,142.0
2019-01-15 19:50,50.6304466666667,-96.9807666666667,15.6,23.1,316,992.81,-16.1,65,0.64,0.0,1022.60,142.0
2019-01-15 20:00,50.6304483333333,-96.9807666666667,14.2,21.7,319,993.55,-16.0,64,0.64,0.0,1023.36,270.0
2019-01-15 20:10,50.6304483333333,-96.9807666666667,13.7,23.4,320,993.94,-15.9,63,0.64,0.0,1023.74,270.0
2019-01-15 20:20,50.6304483333333,-96.9807666666667,13.2,20.6,317,993.85,-16.0,63,0.63,0.0,1023.64,270.0
2019-01-15 20:30,50.6304483333333,-96.9807683333333,15.0,22.5,316,993.93,-16.1,62,0.63,0.0,1023.74,270.0
2019-01-15 20:40,50.6304483333333,-96.9807683333333,13.0,18.6,319,994.36,-16.1,62,0.63,0.0,1024.18,270.0
2019-01-15 20:50,50.6304483333333,-96.9807683333333,13.1,17.7,318,994.52,-16.2,62,0.63,0.0,1024.35,270.0
2019-01-15 21:00,50.6304483333333,-96.9807683333333,12.6,21.0,317,994.66,-16.3,62,0.63,0.0,1024.51,311.7
2019-01-15 21:10,50.6304483333333,-96.9807683333333,12.2,18.8,317,994.88,-16.4,62,0.63,0.0,1024.74,311.7
2019-01-15 21:20,50.6304483333333,-96.9807683333333,13.1,19.6,317,995.19,-16.6,62,0.63,0.0,1025.07,311.7
2019-01-15 21:30,50.6304483333333,-96.9807683333333,13.1,18.3,314,995.55,-16.8,62,0.63,0.0,1025.46,311.7
2019-01-15 21:40,50.6304483333333,-96.9807683333333,11.6,17.7,318,995.84,-16.9,62,0.63,0.0,1025.75,311.7
2019-01-15 21:50,50.6304583333333,-96.9807583333333,12.2,19.5,320,995.96,-17.0,63,0.63,0.0,1025.88,311.7
2019-01-15 22:00,50.6304266666667,-96.9807583333333,12.5,18.5,318,996.25,-17.3,63,0.63,0.0,1026.19,360.0
2019-01-15 22:10,50.6304433333333,-96.9807483333333,11.4,17.0,316,996.81,-17.7,63,0.63,0.0,1026.79,360.0
2019-01-15 22:20,50.630445,-96.9807533333333,12.1,18.2,315,997.11,-18.0,63,0.63,0.0,1027.13,360.0
2019-01-15 22:30,50.6304533333333,-96.9807633333333,10.8,16.8,316,997.38,-18.3,63,0.63,0.0,1027.42,360.0
2019-01-15 22:40,50.63045,-96.9807616666667,10.6,15.2,306,997.77,-18.7,64,0.63,0.0,1027.86,360.0
2019-01-15 22:50,50.63045,-96.980765,11.4,19.8,311,997.99,-19.1,65,0.63,0.0,1028.12,360.0
2019-01-15 23:00,50.63045,-96.980765,10.3,16.0,308,998.30,-19.5,66,0.63,0.0,1028.47,360.0
2019-01-15 23:10,50.6304666666667,-96.98076,11.4,17.4,311,998.48,-19.7,66,0.63,0.0,1028.68,360.0
2019-01-15 23:20,50.6304616666667,-96.9807766666667,11.7,18.3,315,998.52,-19.9,67,0.63,0.0,1028.74,360.0
2019-01-15 23:30,50.6304616666667,-96.980765,11.3,17.7,317,998.68,-20.1,67,0.63,0.0,1028.93,360.0
